Theta_e
350 348 348 349 351 352 351 352 352 352 353 353 351 353 352 353 351 350 348 350 351 353 352 350 351 351 349 345 350 346 345 345 347 342 347 350 347 346 352 351 349 348 347
351 350 349 349 350 350 352 353 353 353 353 353 351 353 353 353 353 352 351 350 351 350 351 350 351 350 351 351 348 345 345 348 349 349 348 349 350 352 351 347 350 346 345
352 351 350 349 349 349 350 351 352 353 353 352 354 352 353 352 351 352 351 351 351 351 350 349 349 351 350 349 350 352 351 351 352 349 349 350 349 349 352 350 349 348 343
352 352 352 352 350 350 350 351 351 353 352 352 352 352 351 352 350 351 351 352 352 353 351 351 351 352 351 347 345 344 344 347 348 344 345 349 350 347 348 348 350 348 342
353 353 353 354 354 353 352 353 352 353 351 353 352 352 351 351 350 351 352 351 351 351 352 352 351 351 349 349 347 348 348 348 348 349 350 347 348 348 348 348 346 347 346
350 351 354 355 355 350 347 345 345 347 346 345 346 348 348 349 348 348 347 347 350 350 349 349 350 349 347 343 342 344 344 343 344 343 345 348 347 346 345 348 348 347 346
351 346 345 352 352 345 344 344 345 345 346 349 345 346 346 346 347 345 345 344 345 349 349 348 348 351 349 349 342 342 344 344 343 342 341 347 346 345 347 348 347 347 347
350 348 351 347 345 346 345 349 346 344 345 346 347 345 345 342 343 342 340 345 344 346 344 346 348 348 350 349 346 348 349 346 341 341 345 346 342 341 342 344 343 345 343
348 350 350 351 349 349 349 348 347 347 348 347 346 346 345 344 342 342 343 344 344 344 343 342 342 342 343 343 342 345 345 345 342 342 342 342 342 342 340 337 343 341 342
346 347 348 346 344 342 340 339 338 339 343 344 346 345 344 343 342 343 343 343 342 342 342 342 341 341 342 342 342 343 342 343 340 339 341 341 339 337 335 334 336 340 339
345 345 343 343 346 345 341 341 342 345 344 343 344 345 343 342 342 344 343 341 340 342 342 338 338 339 337 337 337 336 336 338 335 336 337 335 332 333 333 334 337 337 334
342 343 342 340 337 338 341 341 342 342 343 343 343 341 339 340 338 339 336 333 338 338 339 338 338 338 337 336 335 335 335 334 332 329 329 329 329 330 330 330 328 327 325
337 336 338 340 339 338 340 338 338 338 337 338 339 337 335 336 338 338 338 336 334 338 337 337 337 337 337 335 335 335 334 333 328 326 327 326 327 325 321 321 320 318 315
340 339 340 340 340 338 337 338 337 336 336 336 336 337 336 336 336 335 335 336 336 335 335 335 335 333 331 329 328 328 328 323 324 324 324 323 322 320 316 315 313 313 313
338 337 338 338 339 338 337 338 337 335 336 337 336 335 335 335 334 333 333 332 332 332 333 332 327 323 323 323 320 318 317 319 320 319 319 318 316 316 316 313 314 314 314
333 334 335 335 334 334 333 333 332 332 331 331 331 331 330 330 328 328 327 326 326 327 326 327 327 324 322 318 317 317 316 314 315 314 314 313 313 312 313 311 310 310 310
324 323 321 320 319 319 322 323 324 323 325 326 326 325 324 324 323 322 321 320 320 320 320 321 321 320 319 316 312 311 312 313 312 311 309 308 310 312 308 308 308 307 308
317 318 319 318 316 315 313 312 315 313 313 309 308 308 308 309 309 308 307 311 311 311 310 309 309 310 309 313 311 311 311 309 307 306 306 306 305 305 305 305 305 306 307
319 319 319 317 317 317 317 318 317 316 314 310 310 309 309 309 309 309 309 314 314 314 314 313 313 313 314 313 312 310 309 310 310 309 310 310 308 308 309 307 307 306 303
315 314 315 316 315 316 316 316 316 316 315 315 314 313 310 312 313 315 314 313 313 313 313 314 314 315 315 315 315 314 312 311 311 311 310 309 308 306 305 306 306 305 304
315 313 314 315 315 314 314 314 314 314 314 314 313 310 309 311 312 313 313 312 311 312 313 314 315 315 316 316 315 314 313 312 311 310 310 309 307 306 305 305 305 304 305
318 317 317 317 316 316 315 315 315 315 315 315 314 312 311 311 312 312 313 312 311 311 311 313 314 315 315 315 315 313 312 311 310 310 309 308 307 306 305 304 304 304 304
320 320 320 318 317 316 315 316 316 316 316 315 315 314 314 314 313 313 312 312 312 311 311 311 312 313 313 312 311 310 309 308 309 309 308 307 306 305 304 304 304 304 304
320 320 319 318 319 318 317 316 316 315 315 316 316 316 315 315 314 314 313 312 312 312 311 311 311 311 312 311 310 310 310 309 308 307 307 306 305 304 303 303 304 304 304
320 318 320 319 319 319 317 317 316 317 317 316 316 316 316 316 315 314 314 313 312 312 312 312 311 311 311 312 311 310 309 308 306 303 304 305 304 304 304 303 303 303 304
318 319 319 319 318 317 318 317 317 317 318 317 317 316 315 314 313 313 313 313 312 312 312 312 312 312 311 310 310 310 310 308 306 305 302 303 304 303 303 303 303 303 303
Wind_Speed
16 16 17 18 18 16 14 14 12 11 11 11 11 10 10 11 12 12 12 14 11 10 11 14 11 12 11 10 12 8 10 10 13 10 9 6 10 5 6 5 8 13 11
15 16 16 17 17 16 15 14 12 12 12 12 12 10 10 10 11 13 13 12 13 11 11 13 13 11 13 13 10 13 11 12 10 14 13 11 6 5 6 2 1 10 11
17 16 16 16 16 15 15 14 14 14 14 13 13 14 13 11 10 11 13 12 13 14 13 14 14 12 17 14 15 11 10 11 8 10 11 11 9 6 7 3 6 13 10
17 17 16 15 14 14 14 14 13 13 14 14 14 16 14 13 12 11 11 12 14 14 14 15 14 14 18 17 15 13 14 13 14 13 13 12 14 11 7 10 7 5 4
19 18 17 15 14 13 13 13 12 13 13 13 14 15 16 12 13 14 13 13 15 13 14 16 15 16 18 19 16 13 14 16 12 13 12 14 16 12 7 10 10 10 8
26 22 16 16 15 20 19 19 19 18 18 18 18 18 17 14 19 19 20 17 14 15 15 16 16 18 19 16 18 16 15 14 12 13 14 13 11 10 7 7 11 11 11
16 19 23 20 19 22 19 20 20 22 22 22 23 22 20 18 19 22 23 21 17 15 15 14 14 15 19 17 15 17 17 17 16 16 14 13 15 12 9 9 10 12 14
12 17 14 20 23 25 22 20 21 22 24 25 26 27 30 29 27 25 20 21 20 19 19 17 15 15 17 17 14 9 8 13 14 13 12 13 14 13 14 10 13 13 11
10 12 14 15 13 14 13 16 18 20 20 22 25 24 27 29 27 24 23 21 20 22 24 23 20 21 20 19 17 13 12 14 12 14 15 18 19 17 16 15 12 11 12
8 10 12 10 11 10 13 15 14 16 18 20 23 23 27 26 29 27 24 23 22 21 24 23 20 19 16 13 14 15 12 9 8 11 12 13 14 14 15 15 14 12 12
6 4 4 4 3 5 10 10 11 11 10 10 14 19 20 21 25 24 18 19 20 21 22 20 16 14 10 9 10 12 12 14 14 14 12 12 9 12 12 13 16 15 13
8 9 10 7 5 3 4 3 5 6 5 7 13 12 8 12 11 10 11 10 9 14 17 17 18 19 21 17 15 15 16 15 12 7 9 11 11 12 10 10 11 12 13
6 7 4 4 2 3 5 3 1 2 3 2 3 0 1 2 2 4 7 8 9 10 10 11 13 13 12 14 15 15 15 12 9 8 9 10 9 8 11 12 13 14 15
3 3 6 5 4 3 3 2 1 0 1 2 2 2 0 2 4 6 7 8 9 10 10 8 8 8 6 6 4 3 2 4 8 9 12 13 12 10 11 10 10 10 7
3 4 4 4 4 1 1 1 1 0 1 3 3 4 5 6 8 8 7 7 8 8 13 9 7 5 4 3 2 4 7 6 5 4 4 7 8 7 5 7 5 5 7
9 8 8 6 6 6 6 5 5 5 4 3 2 1 2 1 1 1 2 2 3 3 2 4 5 5 4 1 2 4 3 1 6 6 7 5 2 5 4 4 3 3 3
9 10 11 11 11 9 8 8 9 10 11 10 9 9 8 8 7 7 6 6 6 6 5 5 5 4 5 2 4 7 9 10 14 11 12 13 17 16 11 11 11 6 6
9 12 6 6 9 10 10 10 9 9 9 9 9 9 9 8 8 7 7 9 9 10 5 7 5 4 3 3 7 7 7 6 6 4 4 5 8 9 7 5 5 5 4
6 5 5 6 7 6 6 5 4 4 4 4 5 5 6 6 7 7 7 7 3 4 5 5 5 4 4 4 5 5 3 4 4 4 6 5 5 5 7 5 7 9 7
5 6 7 3 2 3 2 3 2 3 3 3 3 2 2 7 6 4 5 4 5 5 6 5 6 5 3 4 4 3 2 5 4 5 6 6 8 8 6 6 8 7 4
3 3 6 3 2 2 3 3 4 3 3 3 2 2 3 2 1 2 3 5 5 5 6 5 4 3 4 4 5 5 4 6 8 8 8 9 8 7 7 6 6 6 6
4 2 2 3 3 2 3 3 3 3 3 2 2 2 5 2 2 3 4 5 5 7 8 7 4 4 3 4 4 6 8 9 9 9 9 8 9 8 7 7 7 7 6
6 6 6 6 6 6 5 5 5 4 4 3 2 2 3 2 4 4 5 6 6 7 7 6 6 5 6 5 6 7 9 9 9 9 9 9 9 9 8 7 7 8 7
8 9 9 8 7 7 7 8 8 9 8 6 6 6 6 6 7 7 8 7 7 7 7 8 8 8 8 7 8 9 9 7 6 7 9 8 9 9 8 8 8 8 8
10 11 8 8 10 8 8 9 9 8 7 8 7 9 9 7 9 10 10 10 10 11 11 10 10 10 10 12 11 12 15 14 12 13 8 9 9 9 9 8 8 8 8
12 12 9 10 9 11 10 9 11 10 9 9 10 10 7 9 10 10 10 11 12 12 14 13 14 15 15 16 15 16 18 15 14 12 9 7 9 8 8 8 8 9 8
Wind_Direction
207 210 210 212 213 221 224 231 233 234 247 264 269 257 245 256 270 260 244 242 255 269 265 267 266 267 260 266 289 268 264 275 277 276 315 287 296 283 296 307 317 303 323
207 207 210 211 215 223 227 226 235 240 247 257 262 252 245 255 255 265 264 248 261 258 256 265 263 262 265 274 275 279 277 271 279 288 275 315 282 278 279 290 275 271 313
206 210 210 215 218 223 227 234 239 245 249 251 258 259 254 257 259 257 263 266 254 262 263 263 257 255 257 250 256 267 257 260 254 261 267 273 274 276 268 240 231 262 305
207 210 214 215 219 225 233 236 239 246 250 251 254 261 254 262 266 261 258 259 257 250 252 260 267 264 271 269 260 253 256 259 264 271 266 274 262 245 233 259 255 229 223
208 213 213 214 216 224 232 234 243 249 247 254 261 255 256 259 271 266 263 271 265 258 255 256 261 267 257 257 257 258 262 258 272 263 259 277 270 228 221 244 259 249 252
217 210 208 209 218 229 233 243 253 256 265 264 259 259 259 257 261 262 262 263 265 265 265 259 255 255 257 254 254 255 261 267 269 268 253 300 294 273 261 265 257 231 238
226 227 218 214 232 244 251 253 260 258 266 256 267 262 261 260 261 262 261 263 263 266 268 268 265 260 264 259 258 256 256 256 257 258 261 273 279 284 256 265 266 257 235
236 230 237 230 234 243 249 248 254 262 259 259 256 256 260 261 265 263 261 255 260 265 265 259 261 257 253 242 243 244 241 244 245 248 248 253 265 268 263 264 260 260 246
230 225 225 224 233 240 249 253 255 257 263 262 259 260 260 260 252 248 251 251 257 264 265 267 267 260 260 257 244 239 235 262 261 261 258 259 266 268 268 258 245 256 241
201 197 199 212 225 246 263 269 276 278 270 264 265 260 254 254 246 251 247 252 257 259 271 264 253 248 251 247 233 237 243 249 247 279 275 270 270 264 254 248 244 243 261
146 175 220 217 224 245 262 268 265 264 266 256 262 258 255 258 256 248 246 245 253 253 251 240 230 219 224 233 247 254 241 248 269 270 268 261 250 250 250 249 242 242 240
184 210 218 233 235 292 299 256 255 240 256 269 274 256 251 236 239 225 251 256 273 253 254 256 249 256 253 260 270 271 262 258 257 244 248 244 235 244 250 253 260 259 263
217 216 214 201 192 115 102 114 92 85 57 74 161 335 195 207 271 243 255 256 255 264 255 258 279 271 262 270 262 255 253 239 234 227 225 240 261 273 292 287 280 276 277
187 200 211 228 208 159 187 170 63 125 113 122 80 84 58 300 285 280 275 261 257 256 254 255 261 281 283 280 290 285 279 214 222 232 242 257 275 281 284 289 291 303 315
138 160 145 160 167 172 267 231 336 358 79 201 253 247 247 287 283 274 286 288 273 260 260 221 228 225 236 243 179 131 98 65 39 18 20 354 359 351 331 333 331 304 306
99 105 105 111 107 106 94 93 95 91 94 109 115 82 45 105 174 42 44 15 334 329 331 276 263 249 204 126 352 311 277 244 231 206 166 163 218 246 227 306 343 327 280
116 105 98 94 94 96 106 101 92 89 86 81 82 88 85 79 73 63 56 48 30 10 354 341 343 3 318 283 254 254 277 263 266 268 275 258 260 269 270 272 275 261 210
118 109 98 104 83 67 74 84 89 67 70 84 86 87 85 77 71 61 53 43 17 8 347 351 342 333 313 278 256 266 284 291 289 292 282 279 265 270 269 266 280 262 230
107 112 106 110 122 118 112 111 106 109 110 106 75 81 70 47 37 31 32 47 2 353 336 336 316 297 275 250 260 275 264 293 277 288 330 308 291 281 285 282 268 271 251
142 147 133 129 108 126 118 126 122 116 122 123 114 69 12 31 26 27 23 13 15 355 337 325 311 291 270 245 248 256 263 283 292 295 287 279 284 277 244 262 252 242 264
131 122 140 127 135 139 139 143 141 150 146 139 158 206 218 167 252 322 348 349 3 356 337 332 312 291 245 242 235 239 265 280 286 291 289 298 287 287 281 269 252 255 245
189 210 204 201 212 195 187 183 174 171 170 174 232 331 358 76 338 318 311 325 323 335 333 331 328 293 253 246 249 267 283 291 291 286 290 284 275 284 275 269 261 264 263
226 235 235 245 236 241 240 228 229 224 230 237 252 280 330 316 308 313 310 313 308 318 320 314 292 281 276 268 283 284 290 291 292 284 277 282 283 278 277 275 271 267 265
240 240 243 251 249 242 242 238 239 236 244 251 263 270 276 285 292 296 305 305 303 305 311 307 299 282 271 274 279 290 285 275 278 299 287 273 274 281 274 266 268 268 263
247 249 231 248 251 253 246 249 250 252 254 261 260 270 263 300 295 293 295 293 295 295 294 297 295 288 280 270 264 267 280 282 295 295 273 282 272 266 263 262 264 262 263
244 247 229 223 252 252 245 262 257 244 262 258 274 286 296 289 292 294 295 297 299 294 295 285 290 286 279 273 268 263 267 289 302 315 301 263 270 269 263 264 264 264 266